Location: Austin
(30.3000°N, 97.7500°W)
Time: 00:16:39
(UTC-05:00)

Cosmos 1844 - Pass Details

Date: 15 May 2024
Orbit: 820 x 868 km, 70.9° (Epoch: 19 May)

Event Time Altitude Azimuth Distance (km) Brightness Sun altitude
Rises 20:28:43 0° 339° (NNW) 3,455 7.6 -2.9°
Reaches altitude 10° 20:31:11 10° 339° (NNW) 2,514 6.9 -3.3°
Maximum altitude 20:36:59 85° 252° (WSW) 871 3.9 -4.5°
Drops below altitude 10° 20:42:43 10° 164° (SSE) 2,484 5.8 -5.6°
Sets 20:45:09 0° 163° (SSE) 3,411 6.4 -6.1°
